Falfurrias, TX

4:43 PM CST on December 07, 2019 (GMT -0600)
Falfurrias

Weather History for KBKS - October, 2019

Change the Weather History Date:

Saturday, October 26, 2019

  Actual Average (KNQI) Record (KNQI)
Temperature  
Mean Temperature 62 °F -  
Max Temperature 79 °F 80 °F 91 °F (1996)
Min Temperature 46 °F 62 °F 37 °F (2000)
Degree Days  
Heating Degree Days 2    
Growing Degree Days 12 (Base 50)    
Moisture  
Dew Point 31 °F    
Average Humidity 40    
Maximum Humidity 70    
Minimum Humidity 7    
Precipitation  
Precipitation 0.00 in - - ()
Sea Level Pressure  
Sea Level Pressure 29.99 in    
Wind  
Wind Speed 6 mph ()    
Max Wind Speed 15 mph    
Max Gust Speed 22 mph    
Visibility 10.0 miles    
Events      
Averages and records for this station are not official NWS values.
T = Trace of Precipitation, MM = Missing Value Source: Averaged Metar Reports

Daily Weather History Graph

Daily Weather History Graph

Search for Another Location

Airport or City:

Astronomy

Oct. 26, 2019 Rise Set
Actual Time 7:38 AM CDT 6:53 PM CDT
Civil Twilight 7:14 AM CDT 7:17 PM CDT
Nautical Twilight 6:47 AM CDT 7:44 PM CDT
Astronomical Twilight 6:20 AM CDT 8:12 PM CDT
Moon 5:53 AM CDT (10/26) 6:16 PM CDT (10/26)
Length of Visible Light 12h 02m
Length of Day
11h 15m
Waning Crescent, 3% of the Moon is Illuminated
Oct 26
Waning Crescent
Oct 27
New
Nov 4
First Quarter
Nov 12
Full
Nov 19
Last Quarter

Hourly Weather History & Observations

Time (CDT) Temp. Dew Point Humidity Pressure Visibility Wind Dir Wind Speed Gust Speed Precip Events Conditions
12:15 AM 51.8 °F 41.9 °F 69% 30.08 in 10.0 mi WNW 4.6 mph - N/A   Clear
12:35 AM 51.1 °F 41.7 °F 70% 30.08 in 10.0 mi WNW 4.6 mph - N/A   Clear
12:55 AM 51.1 °F 41.2 °F 69% 30.08 in 10.0 mi WNW 5.8 mph - N/A   Clear
1:15 AM 51.3 °F 41.0 °F 68% 30.07 in 10.0 mi WNW 5.8 mph - N/A   Clear
1:35 AM 51.8 °F 40.8 °F 66% 30.06 in 10.0 mi WNW 6.9 mph - N/A   Clear
1:55 AM 52.7 °F 39.9 °F 62% 30.05 in 10.0 mi NW 5.8 mph - N/A   Clear
2:35 AM 52.3 °F 38.3 °F 59% 30.05 in 10.0 mi WNW 5.8 mph - N/A   Clear
2:55 AM 50.7 °F 38.3 °F 62% 30.05 in 10.0 mi WSW 3.5 mph - N/A   Clear
3:15 AM 49.3 °F 38.5 °F 66% 30.05 in 10.0 mi SW 4.6 mph - N/A   Clear
3:35 AM 49.1 °F 38.1 °F 66% 30.05 in 10.0 mi WSW 4.6 mph - N/A   Clear
3:55 AM 48.6 °F 37.6 °F 66% 30.05 in 10.0 mi WSW 4.6 mph - N/A   Clear
4:15 AM 47.5 °F 37.4 °F 68% 30.04 in 10.0 mi West 4.6 mph - N/A   Clear
4:35 AM 46.8 °F 37.0 °F 69% 30.04 in 10.0 mi West 3.5 mph - N/A   Clear
4:55 AM 47.3 °F 36.9 °F 67% 30.03 in 10.0 mi West 5.8 mph - N/A   Clear
5:15 AM 47.5 °F 37.8 °F 69% 30.03 in 10.0 mi NNW 8.1 mph - N/A   Clear
5:35 AM 50.9 °F 37.9 °F 61% 30.03 in 10.0 mi NNW 12.7 mph - N/A   Clear
5:55 AM 51.3 °F 37.4 °F 59% 30.03 in 10.0 mi NNW 10.4 mph - N/A   Clear
6:15 AM 50.7 °F 37.4 °F 60% 30.04 in 10.0 mi NW 8.1 mph - N/A   Clear
6:35 AM 49.1 °F 37.2 °F 64% 30.04 in 10.0 mi NW 9.2 mph - N/A   Clear
6:55 AM 48.9 °F 36.5 °F 62% 30.04 in 10.0 mi NNW 10.4 mph - N/A   Clear
7:15 AM 48.0 °F 36.1 °F 63% 30.04 in 10.0 mi NNW 9.2 mph - N/A   Clear
7:35 AM 47.7 °F 35.8 °F 63% 30.04 in 10.0 mi NNW 10.4 mph - N/A   Clear
7:55 AM 48.2 °F 35.2 °F 61% 30.04 in 10.0 mi NNW 9.2 mph - N/A   Clear
8:15 AM 49.5 °F 35.1 °F 58% 30.05 in 10.0 mi NNW 8.1 mph - N/A   Clear
8:35 AM 51.6 °F 34.7 °F 52% 30.05 in 10.0 mi NNW 8.1 mph - N/A   Clear
8:55 AM 54.5 °F 34.5 °F 47% 30.05 in 10.0 mi NNW 9.2 mph - N/A   Clear
9:15 AM 57.6 °F 33.6 °F 41% 30.06 in 10.0 mi NNW 5.8 mph - N/A   Clear
9:35 AM 60.8 °F 32.9 °F 35% 30.06 in 10.0 mi NNW 8.1 mph - N/A   Clear
9:55 AM 62.6 °F 30.7 °F 30% 30.05 in 10.0 mi NNW 12.7 mph - N/A   Clear
10:15 AM 64.8 °F 29.3 °F 26% 30.05 in 10.0 mi NNW 15.0 mph 19.6 mph N/A   Clear
10:35 AM 66.2 °F 27.9 °F 24% 30.05 in 10.0 mi NNW 12.7 mph 17.3 mph N/A   Clear
10:55 AM 67.8 °F 25.2 °F 20% 30.05 in 10.0 mi NNW 11.5 mph 17.3 mph N/A   Clear
11:15 AM 69.1 °F 24.3 °F 19% 30.05 in 10.0 mi NNW 15.0 mph - N/A   Clear
11:35 AM 70.3 °F 21.9 °F 16% 30.04 in 10.0 mi NW 13.8 mph 21.9 mph N/A   Clear
11:55 AM 70.9 °F 19.9 °F 15% 30.04 in 10.0 mi NNW 12.7 mph 18.4 mph N/A   Clear
12:15 PM 72.7 °F 18.9 °F 13% 30.03 in 10.0 mi NNW 12.7 mph 17.3 mph N/A   Clear
12:35 PM 73.4 °F 16.5 °F 12% 30.02 in 10.0 mi NW 13.8 mph 17.3 mph N/A   Clear
12:55 PM 73.9 °F 16.5 °F 11% 30.01 in 10.0 mi NW 12.7 mph 18.4 mph N/A   Clear
1:15 PM 75.0 °F 16.3 °F 11% 30.01 in 10.0 mi NW 11.5 mph 17.3 mph N/A   Clear
1:55 PM 76.3 °F 16.0 °F 10% 29.98 in 10.0 mi NW 6.9 mph - N/A   Clear
2:15 PM 76.8 °F 15.3 °F 10% 29.96 in 10.0 mi NW 9.2 mph - N/A   Clear
2:35 PM 76.8 °F 14.5 °F 9% 29.95 in 10.0 mi NNW 9.2 mph - N/A   Clear
2:55 PM 77.4 °F 14.2 °F 9% 29.94 in 10.0 mi North 4.6 mph - N/A   Clear
3:15 PM 77.9 °F 14.0 °F 9% 29.93 in 10.0 mi WNW 4.6 mph - N/A   Clear
3:35 PM 78.6 °F 14.5 °F 9% 29.92 in 10.0 mi North 4.6 mph - N/A   Clear
3:55 PM 79.2 °F 14.0 °F 9% 29.91 in 10.0 mi Calm Calm - N/A   Clear
4:15 PM 79.7 °F 11.3 °F 7% 29.91 in 10.0 mi West 9.2 mph - N/A   Clear
4:35 PM 79.5 °F 12.6 °F 8% 29.90 in 10.0 mi WNW 8.1 mph - N/A   Clear
4:55 PM 79.0 °F 12.2 °F 8% 29.90 in 10.0 mi NW 6.9 mph - N/A   Clear
5:15 PM 79.0 °F 14.7 °F 9% 29.89 in 10.0 mi NNW 5.8 mph - N/A   Clear
5:35 PM 78.8 °F 15.3 °F 9% 29.89 in 10.0 mi WNW 4.6 mph - N/A   Clear
5:55 PM 78.8 °F 17.1 °F 10% 29.89 in 10.0 mi Calm Calm - N/A   Clear
6:15 PM 77.5 °F 16.9 °F 10% 29.89 in 10.0 mi Calm Calm - N/A   Clear
6:35 PM 76.5 °F 19.8 °F 12% 29.89 in 10.0 mi Calm Calm - N/A   Clear
6:55 PM 72.0 °F 32.0 °F 23% 29.89 in 10.0 mi Calm Calm - N/A   Clear
7:15 PM 68.5 °F 31.1 °F 25% 29.89 in 10.0 mi Calm Calm - N/A   Clear
7:35 PM 64.4 °F 38.1 °F 38% 29.89 in 10.0 mi Calm Calm - N/A   Clear
7:55 PM 63.5 °F 37.2 °F 38% 29.89 in 10.0 mi Calm Calm - N/A   Clear
8:15 PM 61.3 °F 37.6 °F 41% 29.90 in 10.0 mi Calm Calm - N/A   Clear
8:35 PM 60.3 °F 39.7 °F 47% 29.90 in 10.0 mi Calm Calm - N/A   Clear
8:55 PM 59.4 °F 38.1 °F 45% 29.91 in 7.0 mi Calm Calm - N/A   Clear
9:15 PM 59.0 °F 41.4 °F 52% 29.91 in 10.0 mi Calm Calm - N/A   Clear
9:35 PM 58.8 °F 40.8 °F 51% 29.92 in 10.0 mi SE 5.8 mph - N/A   Clear
9:55 PM 58.3 °F 43.0 °F 57% 29.92 in 10.0 mi SSE 5.8 mph - N/A   Clear
10:15 PM 58.1 °F 42.8 °F 57% 29.92 in 10.0 mi SSE 6.9 mph - N/A   Clear
10:35 PM 57.2 °F 42.8 °F 59% 29.93 in 10.0 mi SSE 6.9 mph - N/A   Clear
10:55 PM 57.4 °F 43.3 °F 59% 29.92 in 10.0 mi SSE 6.9 mph - N/A   Clear
11:15 PM 54.7 °F 42.1 °F 62% 29.93 in 10.0 mi SW 4.6 mph - N/A   Clear
11:35 PM 54.7 °F 40.8 °F 60% 29.93 in 10.0 mi Calm Calm - N/A   Clear
11:55 PM 53.1 °F 40.5 °F 62% 29.92 in 10.0 mi Calm Calm - N/A   Clear